Location: Llanfihangel-Ystrad
(52.1833°N, 4.1667°W)
Time: 20:14:43
(UTC+00:00)

CZ-4C R/B - Pass Details

Date: 17 February 2020
Orbit: 641 x 1360 km, 63.4° (Epoch: 30 March)

Event Time Altitude Azimuth Distance (km) Brightness Sun altitude
Exits shadow 03:29:39 35° 76° (ENE) 1,347 3.6 -36.3°
Drops below altitude 10° 03:33:36 10° 51° (NE) 2,655 5.5 -35.8°
Sets 03:36:28 0° 47° (NE) 3,726 6.5 -35.4°
